This is the latest recevied weather packets stored in our database for station/object KF5WOE-13. If no packets are shown the sender has not sent any weather packets the latest 1 day(s).
| Time | Temp. | Humidity | Pressure | Rain* | Wind** | Luminosity | Snow |
|---|---|---|---|---|---|---|---|
| 1778010439 | 60° C | - | - | 0 mm | 1.79 m/s, 223° | - | - |
| 1778010135 | 60° C | - | - | 0 mm | 1.79 m/s, 236° | - | - |
| 1778009830 | 60° C | - | - | 0 mm | 0 m/s | - | - |
| 1778009528 | 60° C | - | - | 0 mm | 0 m/s | - | - |
| 1778009226 | 60° C | - | - | 0 mm | 2.68 m/s, 241° | - | - |
| 1778008924 | 60° C | - | - | 0 mm | 2.24 m/s, 219° | - | - |
| 1778008622 | 60° C | - | - | 0 mm | 3.13 m/s, 231° | - | - |
| 1778008320 | 60° C | - | - | 0 mm | 2.24 m/s, 225° | - | - |
| 1778008016 | 60° C | - | - | 0 mm | 3.13 m/s, 230° | - | - |
| 1778007715 | 60° C | - | - | 0 mm | 3.13 m/s, 228° | - | - |
| 1778007413 | 60° C | - | - | 0 mm | 3.13 m/s, 217° | - | - |
| 1778007109 | 60° C | - | - | 0 mm | 3.58 m/s, 228° | - | - |
| 1778006805 | 60° C | - | - | 0 mm | 3.58 m/s, 239° | - | - |
| 1778006503 | 60° C | - | - | 0 mm | 3.13 m/s, 216° | - | - |
| 1778006199 | 60° C | - | - | 0 mm | 3.58 m/s, 219° | - | - |
| 1778005897 | 60° C | - | - | 0 mm | 4.92 m/s, 246° | - | - |
| 1778005593 | 60° C | - | - | 0 mm | 4.02 m/s, 241° | - | - |
| 1778005290 | 60° C | - | - | 0 mm | 3.58 m/s, 231° | - | - |
| 1778004986 | 60° C | - | - | 0 mm | 4.92 m/s, 218° | - | - |
| 1778004684 | 60° C | - | - | 0 mm | 3.58 m/s, 250° | - | - |
| 1778004380 | 60° C | - | - | 0 mm | 1.34 m/s, 209° | - | - |
| 1778004078 | 60° C | - | - | 0 mm | 4.92 m/s, 231° | - | - |
| 1778003773 | 60° C | - | - | 0 mm | 3.13 m/s, 201° | - | - |
| 1778003470 | 60° C | - | - | 0 mm | 2.24 m/s, 222° | - | - |
| 1778003167 | 60° C | - | - | 0 mm | 3.13 m/s, 217° | - | - |
* Rain latest hour (hover to see other rain measurements)
** Current wind speed in m/s (hover to see current wind gust speed)